Location: Chuathbaluk
(61.5726°N, 159.2454°W)
Time: 23:48:48
(UTC+00:00)

Transit 4A - Pass Details

Date: 30 November 2020
Orbit: 864 x 980 km, 66.8° (Epoch: 20 January)

Event Time Altitude Azimuth Distance (km) Brightness Sun altitude
Rises 16:39:49 0° 149° (SSE) 3,651 11.7 -17.4°
Reaches altitude 10° 16:44:08 10° 122° (ESE) 2,726 11.5 -16.9°
Maximum altitude 16:46:30 12° 100° (E) 2,568 11.5 -16.7°
Drops below altitude 10° 16:48:53 10° 78° (ENE) 2,741 11.3 -16.4°
Sets 16:53:15 0° 50° (NE) 3,695 11.5 -15.9°
